SCP
0 0 0 0 0 0 0 0 0 0 0 0 0 0 0 0 0 -0 0 0 0 0 0 0 0 0 0 0 0 0 0 0 0 0 0 0 0 0 0 0 0 0 0
0 0 0 0 0 0 0 0 0 0 0 0 0 0 0 0 0 0 0 0 0 0 0 0 0 0 0 0 0 0 0 0 0 0 0 0 0 0 0 0 0 0 0
0 0 0 0 0 0 0 0 0 0 0 0 0 0 0 0 0 0 0 0 0 0 0 0 0 0 0 0 0 0 0 0 0 0 0 0 0 0 0 0 0 0 0
0 0 0 0 0 0 0 0 0 0 0 0 0 0 0 0 0 0 0 0 0 0 0 0 0 0 0 0 0 0 0 0 0 0 0 0 0 0 0 0 0 0 0
0 0 0 0 0 0 0 0 0 0 0 0 0 0 0 0 0 0 0 0 0 0 0 0 0 0 0 0 0 0 0 0 0 0 0 0 0 0 0 0 0 0 0
0 0 0 0 0 0 0 0 0 0 0 0 0 0 0 0 0 0 0 0 0 0 0 0 0 0 0 0 0 0 0 0 0 0 0 0 0 0 0 0 0 0 0
0 0 0 0 0 0 0 0 0 0 0 0 0 0 0 0 0 0 0 0 0 0 0 0 0 0 0 0 0 0 0 0 0 0 0 0 0 0 0 0 0 0 0
0 0 0 0 0 0 0 0 0 0 0 0 0 0 0 0 0 0 0 0 0 0 0 0 0 0 0 0 0 0 0 0 0 0 0 0 0 0 0 0 0 0 0
0 0 0 0 0 0 0 0 0 0 0 0 0 0 0 0 0 0 0 0 0 0 0 0 0 0 0 0 0 0 0 0 0 0 0 0 0 0 0 0 0 0 0
0 0 0 0 0 0 0 0 0 0 0 0 0 0 0 0 0 0 0 0 0 0 0 0 0 0 0 0 0 0 0 0 0 0 0 0 0 0 0 0 0 0 0
0 0 0 0 0 0 0 0 0 0 0 0 0 0 0 0 0 0 0 0 0 0 0 0 0 0 0 0 0 0 0 0 0 0 0 0 0 0 0 0 0 0 0
0 0 0 0 0 0 0 0 0 0 0 0 0 0 0 0 0 0 0 0 0 0 0 0 0 0 0 0 0 0 0 0 0 0 0 0 0 0 0 0 0 0 0
0 0 0 0 0 0 0 0 0 0 0 0 0 0 0 0 0 0 0 0 0 0 0 0 0 0 0 0 0 0 0 0 0 0 0 0 0 0 0 0 0 0 0
0 0 0 0 0 0 0 0 0 0 0 0 0 -0 0 0 0 0 0 0 0 0 0 0 0 0 0 0 0 0 0 0 0 0 0 0 0 0 0 0 0 0 0
0 0 0 0 0 0 0 0 0 0 0 0 0 0 0 0 0 0 0 0 -0 -0 -0 0 0 0 0 0 0 0 0 0 0 0 0 0 0 0 0 0 0 0 0
0 0 0 0 0 0 0 0 0 0 0 0 0 0 0 0 0 0 0 -0 -0 0 -0 -0 -0 0 0 0 0 0 0 0 0 0 0 0 0 0 0 0 0 0 0
0 0 0 0 0 0 0 0 0 0 0 0 0 0 0 0 0 0 -0 -0 -0 0 -0 -0 -0 0 0 0 0 -0 -0 -0 -0 -0 0 -0 -0 -0 0 0 0 0 0
0 0 0 -0 -0 -0 0 0 -0 0 0 0 0 0 0 0 0 -0 -0 -0 -0 0 0 -0 -0 0 0 0 0 -0 -0 -0 -0 0 -0 -0 -0 -0 -0 0 0 0 0
0 -0 -0 0 -0 -0 -0 -0 -0 -0 0 0 0 0 0 0 -0 -0 -0 0 0 0 0 0 0 0 0 0 0 0 0 -0 -0 -0 -0 -0 0 -0 -0 -0 0 0 0
-0 -0 -0 -0 0 0 0 0 0 0 0 0 -0 -0 -0 -0 -0 -0 0 0 0 0 0 0 0 0 0 0 0 0 0 0 0 0 -0 0 -0 -0 -0 -0 -0 0 0
-0 -0 -0 -0 -0 -0 -0 -0 -0 -0 -0 -0 -0 -0 -0 -0 0 0 0 0 0 0 0 0 0 0 0 0 0 -0 0 0 0 0 -0 0 0 0 0 0 -0 -0 -0
0 0 0 0 0 0 0 0 0 0 0 0 0 0 0 0 0 0 0 0 -0 0 0 0 0 0 0 0 0 0 0 0 -0 0 0 0 0 0 0 0 0 0 0
0 0 0 0 0 0 0 0 0 0 0 0 0 0 0 0 0 0 -0 -0 0 0 0 0 0 0 0 0 0 0 0 0 0 0 0 0 0 0 0 0 0 0 0
0 0 0 0 0 0 0 0 0 0 0 0 0 0 0 0 0 0 0 0 0 0 0 0 0 0 0 0 0 0 0 0 0 0 0 0 0 0 0 0 0 0 0
0 0 0 0 0 0 0 0 0 0 0 0 0 0 0 0 0 0 0 0 0 0 0 0 0 0 0 0 0 0 0 0 0 0 0 0 0 0 0 0 0 0 0
0 0 0 0 0 0 0 0 0 0 0 0 0 0 0 0 0 0 0 0 0 0 0 0 0 0 0 0 0 0 0 0 0 0 0 0 0 0 0 0 0 0 0
Wind_Speed_500mb
32 26 26 28 26 24 25 33 36 40 40 42 46 46 45 42 38 35 25 15 6 5 8 4 6 19 20 23 28 32 35 40 52 50 43 48 37 37 32 34 31 29 27
28 23 22 21 22 27 31 38 40 39 40 40 44 44 42 37 34 30 18 9 9 17 13 14 18 27 28 27 27 27 29 40 42 40 29 27 27 27 30 32 32 34 33
14 18 26 26 29 37 37 33 33 32 35 42 40 34 35 34 30 25 13 10 13 18 19 20 22 21 23 28 28 29 24 20 19 21 23 27 29 29 27 29 26 30 32
39 36 43 43 40 39 29 31 31 20 29 33 32 30 30 28 27 25 17 14 16 17 18 21 19 20 23 25 31 24 15 17 20 26 27 33 33 27 27 28 29 32 35
21 17 30 29 28 35 32 25 14 14 21 30 31 31 27 19 18 18 18 19 19 20 18 22 21 21 22 27 26 17 16 15 20 24 25 27 29 29 28 27 27 29 31
34 32 31 34 35 34 31 25 12 16 19 21 23 25 24 18 16 12 16 20 21 22 22 24 21 20 25 23 19 14 18 21 24 26 34 34 31 28 28 32 33 36 39
27 26 28 33 35 38 36 34 24 14 21 19 21 17 21 18 13 13 16 16 18 20 22 22 18 19 16 18 19 18 19 23 31 34 34 36 36 34 34 33 31 36 37
30 29 28 26 27 32 30 23 11 23 22 20 16 20 11 11 15 16 15 14 16 13 10 13 13 11 11 13 18 19 24 27 25 30 31 36 35 30 29 32 33 35 37
29 26 25 23 25 26 23 22 15 21 17 17 16 11 8 7 8 14 12 11 20 14 13 12 14 15 15 17 16 18 23 27 28 31 34 38 35 28 28 29 28 29 34
33 27 24 21 21 23 22 22 18 19 19 17 12 16 17 14 8 9 10 8 16 13 18 19 19 20 19 22 25 22 26 27 31 35 32 39 29 26 27 27 27 26 29
31 28 27 26 27 23 22 23 25 23 22 16 14 15 13 11 11 10 18 12 13 14 18 23 24 22 26 26 29 25 26 28 35 34 35 38 30 26 25 26 30 36 30
28 25 23 23 22 21 21 22 25 28 25 20 21 18 18 9 8 11 17 16 19 18 22 17 19 22 24 24 29 27 32 25 28 27 32 39 36 31 26 26 33 35 34
29 28 26 23 20 20 18 24 25 27 28 27 24 21 16 9 10 18 15 18 22 24 22 20 14 16 19 22 25 29 26 18 23 26 31 32 31 33 30 31 33 34 37
33 30 24 23 23 21 20 23 16 17 21 21 25 19 15 9 15 18 18 23 28 27 25 22 11 19 27 30 21 25 25 18 15 21 25 25 27 32 29 28 32 32 33
29 25 22 24 23 20 24 27 15 19 22 15 24 17 4 12 15 19 22 23 23 30 33 20 23 33 23 18 20 24 24 14 9 14 17 25 29 30 29 34 33 29 29
23 20 21 25 23 22 24 22 18 4 8 9 8 9 11 13 16 19 22 22 21 26 24 26 31 18 18 20 22 24 19 9 3 7 16 25 32 36 36 32 34 30 29
24 22 21 22 20 16 18 18 16 17 12 3 8 4 11 15 17 15 18 19 22 26 30 25 25 17 20 22 20 22 5 8 8 11 20 29 35 37 37 39 39 38 33
16 16 17 23 14 9 10 13 14 12 9 10 10 12 10 10 10 13 18 22 21 18 20 21 18 19 22 20 21 8 14 10 10 16 25 31 32 34 36 37 39 43 42
9 8 15 20 20 22 17 13 13 13 11 10 12 12 11 11 14 15 20 19 20 21 21 18 16 20 22 21 11 14 13 11 14 20 26 29 28 32 40 42 41 42 44
9 7 12 19 25 23 18 16 16 20 20 17 16 17 15 14 16 19 19 17 20 18 9 9 17 17 18 19 6 10 7 8 12 21 18 22 29 34 40 44 49 50 46
8 13 16 17 19 19 18 14 9 7 7 9 10 9 9 14 20 12 8 12 13 5 7 13 15 22 20 12 11 10 4 15 18 24 18 17 22 23 33 39 44 50 57
18 15 16 14 15 20 18 20 20 15 10 4 1 4 10 9 8 2 6 9 6 5 10 15 16 17 19 18 15 10 12 19 21 26 27 21 25 19 25 31 37 44 50
27 20 19 20 18 16 15 14 12 10 10 5 1 3 4 5 9 13 13 12 11 10 11 13 14 16 21 19 16 15 17 18 19 27 35 21 24 20 22 27 33 38 43
32 31 22 16 13 11 12 15 19 17 18 18 15 12 17 22 18 19 16 15 16 15 15 16 16 14 16 18 18 19 23 24 21 23 37 23 32 23 21 20 31 35 37
36 36 37 35 33 32 29 25 24 25 26 26 28 29 21 21 22 25 26 28 28 28 28 23 19 18 19 19 19 21 16 24 22 17 24 23 32 30 20 24 24 35 38
35 32 30 30 30 33 39 45 36 28 26 28 29 29 25 24 27 30 35 37 36 37 37 35 32 30 26 23 20 21 22 21 21 21 29 29 28 32 25 32 28 26 28
Wind_Direction_500mb
260 256 254 259 263 266 281 297 309 312 316 321 321 321 320 322 326 335 334 329 309 151 189 182 299 280 292 284 282 283 287 286 283 290 289 291 285 279 270 271 276 280 272
233 242 246 245 258 273 284 300 299 306 311 316 316 312 310 316 322 331 333 305 223 227 238 256 274 280 297 303 302 297 294 282 288 294 292 292 293 287 272 272 267 264 264
239 227 257 260 278 294 297 294 291 293 310 314 311 309 309 310 310 318 313 276 251 254 260 267 282 292 309 318 315 307 298 292 286 290 294 295 295 286 283 277 275 268 261
269 281 273 283 290 282 270 267 272 313 314 312 309 307 302 297 297 299 300 280 264 268 277 279 283 293 310 316 315 308 304 304 297 293 297 295 294 292 293 295 290 279 272
275 282 295 285 269 266 269 266 288 322 328 327 318 310 301 290 289 287 294 290 282 275 279 284 290 294 302 316 302 290 304 318 327 326 315 313 307 300 296 285 279 279 278
316 310 288 285 292 278 263 277 280 296 311 320 305 295 287 275 276 301 299 288 282 280 285 291 298 302 306 309 291 291 315 319 325 324 318 314 305 303 291 285 283 282 277
340 323 299 288 280 285 288 308 295 341 323 319 311 291 282 276 263 308 319 317 302 292 289 296 297 301 314 294 282 289 304 325 324 318 315 313 310 301 296 299 291 289 285
337 330 321 312 302 290 286 282 264 314 301 305 287 303 279 266 232 288 291 327 319 323 313 304 296 297 301 302 301 307 311 312 319 315 326 320 316 311 294 285 284 284 288
342 345 339 316 301 293 293 279 289 291 282 287 278 270 293 295 282 260 271 315 323 314 307 300 305 320 312 305 308 322 320 325 319 312 318 328 320 306 294 290 288 288 288
329 329 327 320 312 303 288 283 257 266 277 280 279 277 274 283 307 298 257 311 328 306 299 292 292 300 309 318 318 315 325 324 317 322 327 325 319 300 297 291 301 300 295
317 323 318 313 316 312 294 285 265 266 281 272 278 273 270 281 290 284 299 309 339 337 319 291 278 290 302 306 312 310 314 310 316 319 317 327 330 312 307 306 307 306 295
338 339 328 314 310 314 299 290 282 281 271 276 281 282 274 272 305 290 295 308 323 323 324 308 290 288 287 309 321 315 315 310 309 312 320 327 326 320 317 298 294 296 302
336 339 346 346 342 335 320 308 287 280 271 264 274 281 253 270 271 297 296 311 317 322 331 318 288 306 317 312 310 309 315 311 307 317 324 328 333 334 323 311 304 302 298
326 332 335 339 337 328 332 344 312 280 271 273 273 262 223 266 276 297 306 315 316 323 321 311 309 323 315 308 315 321 324 312 294 323 327 333 335 336 332 329 328 320 312
321 318 325 337 346 342 343 339 323 295 268 271 263 209 193 254 266 286 297 299 308 319 323 317 313 319 325 324 325 326 326 318 295 327 343 357 354 346 351 354 347 338 337
328 320 336 342 348 350 1 10 358 348 158 176 190 275 228 266 281 288 295 300 308 309 300 300 313 320 317 328 327 328 329 337 340 10 12 15 13 12 9 0 360 354 346
338 327 331 321 329 352 3 20 45 53 56 114 186 347 305 295 290 297 299 305 309 305 296 306 330 323 331 334 335 328 342 113 71 35 26 20 16 14 12 13 14 11 2
335 340 3 9 352 356 356 358 2 17 34 30 14 350 324 310 300 298 308 306 303 297 304 312 323 337 337 345 342 359 108 81 58 19 12 5 2 6 11 13 13 15 12
334 2 351 354 350 343 322 311 310 307 310 313 318 326 322 322 318 313 311 302 295 301 309 312 319 331 342 357 36 109 85 60 26 13 9 18 28 32 28 22 17 15 14
33 42 349 340 338 331 323 308 285 276 276 279 290 300 307 303 304 306 308 291 283 312 325 331 340 341 340 356 106 126 56 30 4 4 7 19 22 29 29 27 26 22 16
29 12 347 341 343 359 6 10 4 333 294 267 278 282 291 304 310 312 307 309 329 352 16 354 352 356 16 47 104 107 52 350 350 15 1 355 10 10 15 18 19 20 19
52 45 48 60 47 41 44 55 57 60 67 84 84 317 316 319 321 348 339 18 33 11 4 6 14 25 46 76 93 72 16 4 11 1 10 10 2 349 353 360 4 10 14
39 52 60 57 56 49 44 32 26 19 14 6 26 62 75 32 39 72 65 44 37 37 25 38 47 78 72 70 59 38 20 5 356 7 15 4 357 354 351 351 359 5 9
52 59 59 52 37 19 24 50 58 57 70 74 81 90 86 95 75 59 50 45 49 42 48 67 76 73 56 49 42 29 25 14 2 9 18 15 11 4 3 0 8 5 6
57 60 63 60 57 52 57 61 64 72 75 73 86 102 93 80 64 61 69 71 69 66 68 71 67 59 54 50 37 28 6 14 12 6 358 1 2 5 3 4 352 7 10
59 58 56 54 51 55 66 67 59 64 77 83 86 85 80 74 72 78 81 79 74 71 68 65 61 60 53 50 42 26 10 8 349 10 351 0 4 9 17 14 10 6 5
Wind_Speed_850mb
32 26 26 28 26 24 25 33 36 40 40 42 46 46 45 42 38 35 25 15 6 5 8 4 6 19 20 23 28 32 35 40 52 50 43 48 37 37 32 34 31 29 27
28 23 22 21 22 27 31 38 40 39 40 40 44 44 42 37 34 30 18 9 9 17 13 14 18 27 28 27 27 27 29 40 42 40 29 27 27 27 30 32 32 34 33
14 18 26 26 29 37 37 33 33 32 35 42 40 34 35 34 30 25 13 10 13 18 19 20 22 21 23 28 28 29 24 20 19 21 23 27 29 29 27 29 26 30 32
39 36 43 43 40 39 29 31 31 20 29 33 32 30 30 28 27 25 17 14 16 17 18 21 19 20 23 25 31 24 15 17 20 26 27 33 33 27 27 28 29 32 35
21 17 30 29 28 35 32 25 14 14 21 30 31 31 27 19 18 18 18 19 19 20 18 22 21 21 22 27 26 17 16 15 20 24 25 27 29 29 28 27 27 29 31
34 32 31 34 35 34 31 25 12 16 19 21 23 25 24 18 16 12 16 20 21 22 22 24 21 20 25 23 19 14 18 21 24 26 34 34 31 28 28 32 33 36 39
27 26 28 33 35 38 36 34 24 14 21 19 21 17 21 18 13 13 16 16 18 20 22 22 18 19 16 18 19 18 19 23 31 34 34 36 36 34 34 33 31 36 37
30 29 28 26 27 32 30 23 11 23 22 20 16 20 11 11 15 16 15 14 16 13 10 13 13 11 11 13 18 19 24 27 25 30 31 36 35 30 29 32 33 35 37
29 26 25 23 25 26 23 22 15 21 17 17 16 11 8 7 8 14 12 11 20 14 13 12 14 15 15 17 16 18 23 27 28 31 34 38 35 28 28 29 28 29 34
33 27 24 21 21 23 22 22 18 19 19 17 12 16 17 14 8 9 10 8 16 13 18 19 19 20 19 22 25 22 26 27 31 35 32 39 29 26 27 27 27 26 29
31 28 27 26 27 23 22 23 25 23 22 16 14 15 13 11 11 10 18 12 13 14 18 23 24 22 26 26 29 25 26 28 35 34 35 38 30 26 25 26 30 36 30
28 25 23 23 22 21 21 22 25 28 25 20 21 18 18 9 8 11 17 16 19 18 22 17 19 22 24 24 29 27 32 25 28 27 32 39 36 31 26 26 33 35 34
29 28 26 23 20 20 18 24 25 27 28 27 24 21 16 9 10 18 15 18 22 24 22 20 14 16 19 22 25 29 26 18 23 26 31 32 31 33 30 31 33 34 37
33 30 24 23 23 21 20 23 16 17 21 21 25 19 15 9 15 18 18 23 28 27 25 22 11 19 27 30 21 25 25 18 15 21 25 25 27 32 29 28 32 32 33
29 25 22 24 23 20 24 27 15 19 22 15 24 17 4 12 15 19 22 23 23 30 33 20 23 33 23 18 20 24 24 14 9 14 17 25 29 30 29 34 33 29 29
23 20 21 25 23 22 24 22 18 4 8 9 8 9 11 13 16 19 22 22 21 26 24 26 31 18 18 20 22 24 19 9 3 7 16 25 32 36 36 32 34 30 29
24 22 21 22 20 16 18 18 16 17 12 3 8 4 11 15 17 15 18 19 22 26 30 25 25 17 20 22 20 22 5 8 8 11 20 29 35 37 37 39 39 38 33
16 16 17 23 14 9 10 13 14 12 9 10 10 12 10 10 10 13 18 22 21 18 20 21 18 19 22 20 21 8 14 10 10 16 25 31 32 34 36 37 39 43 42
9 8 15 20 20 22 17 13 13 13 11 10 12 12 11 11 14 15 20 19 20 21 21 18 16 20 22 21 11 14 13 11 14 20 26 29 28 32 40 42 41 42 44
9 7 12 19 25 23 18 16 16 20 20 17 16 17 15 14 16 19 19 17 20 18 9 9 17 17 18 19 6 10 7 8 12 21 18 22 29 34 40 44 49 50 46
8 13 16 17 19 19 18 14 9 7 7 9 10 9 9 14 20 12 8 12 13 5 7 13 15 22 20 12 11 10 4 15 18 24 18 17 22 23 33 39 44 50 57
18 15 16 14 15 20 18 20 20 15 10 4 1 4 10 9 8 2 6 9 6 5 10 15 16 17 19 18 15 10 12 19 21 26 27 21 25 19 25 31 37 44 50
27 20 19 20 18 16 15 14 12 10 10 5 1 3 4 5 9 13 13 12 11 10 11 13 14 16 21 19 16 15 17 18 19 27 35 21 24 20 22 27 33 38 43
32 31 22 16 13 11 12 15 19 17 18 18 15 12 17 22 18 19 16 15 16 15 15 16 16 14 16 18 18 19 23 24 21 23 37 23 32 23 21 20 31 35 37
36 36 37 35 33 32 29 25 24 25 26 26 28 29 21 21 22 25 26 28 28 28 28 23 19 18 19 19 19 21 16 24 22 17 24 23 32 30 20 24 24 35 38
35 32 30 30 30 33 39 45 36 28 26 28 29 29 25 24 27 30 35 37 36 37 37 35 32 30 26 23 20 21 22 21 21 21 29 29 28 32 25 32 28 26 28
Wind_Direction_850mb
260 256 254 259 263 266 281 297 309 312 316 321 321 321 320 322 326 335 334 329 309 151 189 182 299 280 292 284 282 283 287 286 283 290 289 291 285 279 270 271 276 280 272
233 242 246 245 258 273 284 300 299 306 311 316 316 312 310 316 322 331 333 305 223 227 238 256 274 280 297 303 302 297 294 282 288 294 292 292 293 287 272 272 267 264 264
239 227 257 260 278 294 297 294 291 293 310 314 311 309 309 310 310 318 313 276 251 254 260 267 282 292 309 318 315 307 298 292 286 290 294 295 295 286 283 277 275 268 261
269 281 273 283 290 282 270 267 272 313 314 312 309 307 302 297 297 299 300 280 264 268 277 279 283 293 310 316 315 308 304 304 297 293 297 295 294 292 293 295 290 279 272
275 282 295 285 269 266 269 266 288 322 328 327 318 310 301 290 289 287 294 290 282 275 279 284 290 294 302 316 302 290 304 318 327 326 315 313 307 300 296 285 279 279 278
316 310 288 285 292 278 263 277 280 296 311 320 305 295 287 275 276 301 299 288 282 280 285 291 298 302 306 309 291 291 315 319 325 324 318 314 305 303 291 285 283 282 277
340 323 299 288 280 285 288 308 295 341 323 319 311 291 282 276 263 308 319 317 302 292 289 296 297 301 314 294 282 289 304 325 324 318 315 313 310 301 296 299 291 289 285
337 330 321 312 302 290 286 282 264 314 301 305 287 303 279 266 232 288 291 327 319 323 313 304 296 297 301 302 301 307 311 312 319 315 326 320 316 311 294 285 284 284 288
342 345 339 316 301 293 293 279 289 291 282 287 278 270 293 295 282 260 271 315 323 314 307 300 305 320 312 305 308 322 320 325 319 312 318 328 320 306 294 290 288 288 288
329 329 327 320 312 303 288 283 257 266 277 280 279 277 274 283 307 298 257 311 328 306 299 292 292 300 309 318 318 315 325 324 317 322 327 325 319 300 297 291 301 300 295
317 323 318 313 316 312 294 285 265 266 281 272 278 273 270 281 290 284 299 309 339 337 319 291 278 290 302 306 312 310 314 310 316 319 317 327 330 312 307 306 307 306 295
338 339 328 314 310 314 299 290 282 281 271 276 281 282 274 272 305 290 295 308 323 323 324 308 290 288 287 309 321 315 315 310 309 312 320 327 326 320 317 298 294 296 302
336 339 346 346 342 335 320 308 287 280 271 264 274 281 253 270 271 297 296 311 317 322 331 318 288 306 317 312 310 309 315 311 307 317 324 328 333 334 323 311 304 302 298
326 332 335 339 337 328 332 344 312 280 271 273 273 262 223 266 276 297 306 315 316 323 321 311 309 323 315 308 315 321 324 312 294 323 327 333 335 336 332 329 328 320 312
321 318 325 337 346 342 343 339 323 295 268 271 263 209 193 254 266 286 297 299 308 319 323 317 313 319 325 324 325 326 326 318 295 327 343 357 354 346 351 354 347 338 337
328 320 336 342 348 350 1 10 358 348 158 176 190 275 228 266 281 288 295 300 308 309 300 300 313 320 317 328 327 328 329 337 340 10 12 15 13 12 9 0 360 354 346
338 327 331 321 329 352 3 20 45 53 56 114 186 347 305 295 290 297 299 305 309 305 296 306 330 323 331 334 335 328 342 113 71 35 26 20 16 14 12 13 14 11 2
335 340 3 9 352 356 356 358 2 17 34 30 14 350 324 310 300 298 308 306 303 297 304 312 323 337 337 345 342 359 108 81 58 19 12 5 2 6 11 13 13 15 12
334 2 351 354 350 343 322 311 310 307 310 313 318 326 322 322 318 313 311 302 295 301 309 312 319 331 342 357 36 109 85 60 26 13 9 18 28 32 28 22 17 15 14
33 42 349 340 338 331 323 308 285 276 276 279 290 300 307 303 304 306 308 291 283 312 325 331 340 341 340 356 106 126 56 30 4 4 7 19 22 29 29 27 26 22 16
29 12 347 341 343 359 6 10 4 333 294 267 278 282 291 304 310 312 307 309 329 352 16 354 352 356 16 47 104 107 52 350 350 15 1 355 10 10 15 18 19 20 19
52 45 48 60 47 41 44 55 57 60 67 84 84 317 316 319 321 348 339 18 33 11 4 6 14 25 46 76 93 72 16 4 11 1 10 10 2 349 353 360 4 10 14
39 52 60 57 56 49 44 32 26 19 14 6 26 62 75 32 39 72 65 44 37 37 25 38 47 78 72 70 59 38 20 5 356 7 15 4 357 354 351 351 359 5 9
52 59 59 52 37 19 24 50 58 57 70 74 81 90 86 95 75 59 50 45 49 42 48 67 76 73 56 49 42 29 25 14 2 9 18 15 11 4 3 0 8 5 6
57 60 63 60 57 52 57 61 64 72 75 73 86 102 93 80 64 61 69 71 69 66 68 71 67 59 54 50 37 28 6 14 12 6 358 1 2 5 3 4 352 7 10
59 58 56 54 51 55 66 67 59 64 77 83 86 85 80 74 72 78 81 79 74 71 68 65 61 60 53 50 42 26 10 8 349 10 351 0 4 9 17 14 10 6 5